NOAA 16 DEB, 41494

Orbit data source: Space-Track

NOAA 16 DEB, 41494 is space debris in SSO originally from a launch on Thu, 21 Sep 2000 UTC launched from the Air Force Western Test Range (AFWTR). Debris objects in space refer to the collection of defunct objects orbiting the Earth. Examples of debris include non-operational satellites, rocket bodies, and fragments generated from explosions, collisions, or faulty payload assembly.

Loading next visibility...
Identifier
41494, 2000-055LS
Orbit
SSO
Country
Flag of USUS
Related business
Manufacturer
Unknown
Mission
Spacecraft
Bus & Motor
Unknown
Mass
Unknown
Launch date (UTC)
2000-09-21 (25 years ago)
Launch vehicle
Unknown
Launch site
Air Force Western Test Range (AFWTR)
Object type
Payload
Rocket body
Debris
Shape & HBR
Unknown shape, 0.1 m
Radar Cross Section
Small (<0.1 m²)

Expand to show TLE details & history
Last TLE update: 1 day ago

TLE from 1 day ago
0 NOAA 16 DEB
1 41494U 00055LS  25292.77232033  .00022726  00000-0  51726-2 0  9991
2 41494  98.9480 115.4879 0023751  68.7583 291.6146 14.55711300499202
Epoch: 2025-10-19T18:32Z
TLE epoch observation values (Epoch: 2025-10-19T18:32:08.476Z)
Latitude
-0.00003°
Longitude
168.9684°
Altitude
703.846 km
Speed
7.507 km/s
True Right ascension
07h 41m 57s
True Declination
0° 00' 00"
Sunlit
Object was in daylight at epoch
Visualization orbit readout
Latitude
Unknown
Longitude
Unknown
Altitude
Unknown
Speed
Unknown
Apparent Right ascension
Unknown
Apparent Declination
Unknown
Sunlit
N/A
Visualization observer readout
Local Sidereal Time
00:14:25
Azimuth
Unknown
Elevation
Unknown
Doppler factor
Unknown
Orbital elements
Apogee altitude
721 km
Perigee altitude
687.357 km
Semi-major axis
7,082.316 km
Eccentricity
0.00238
Inclination
98.948°
RAAN
115.4879°
Arg. of periapsis
68.7583°
True anomaly
291.3613°
Mean anomaly
291.6146°
Eccentric anomaly
291.48798°
Mean motion
3.6415 °/min
Orbital period
98.86 mins
BSTAR
0.0051726
Loading maneuver chart data...
Computing Atmospheric mass density...
Loading historical data...
Loading historical data...
Loading historical data...
Loading historical data...
Loading historical data...
Loading historical data...
Loading historical data...

Documentation

Showing up to 5 results
|